Tracking 19181 objects as of 17-Jun-2018
HD Live streaming from Space Station
objects crossing your sky now

FENGYUN 1C DEB

Track FENGYUN 1C DEB now!
10-day predictions


NORAD ID: 30980
Int'l Code: 1999-025BBW
Perigee: 491.2 km
Apogee: 515.0 km
Inclination: 98.9 °
Period: 94.5 minutes
Semi major axis: 6874 km
RCS: 0.0134 m2 (small)
Launch date: May 10, 1999
Source: People's Republic of China (PRC)
Launch site: Taiyaun Space Center, China (TSC)

Note: This is SATELLITE DEBRIS
aabbcc
Your satellite tracking list
Your tracking list is empty




NASA's NSSDC Master Catalog

Two Line Element Set (TLE):
1 30980U 99025BBW 18167.18575311 +.00017418 +00000-0 +73414-3 0  9992
2 30980 098.8875 153.4571 0017298 204.6376 155.4032 15.23290196601351
Source of the keplerian elements: AFSPC